Lake Buena Vista Weather Center

Moon Phase Calendar



Lake Buena Vista Water Level
Online Cameras

 


      

Current Conditions in Celebration
5/24/2022 7:09:25 AM

75°F
Feels Like 76
Clear
Humidity
81%
Pressure
30.03"
Wind
4.6 mph (SE)
Dew Point
68°F
UV Index
0/10 (Low)
Visibility
6 mi

Hourly Forecast

Date & Time Tue, May 24
7:00 AM
Tue, May 24
8:00 AM
Tue, May 24
9:00 AM
Tue, May 24
10:00 AM
Tue, May 24
11:00 AM
Tue, May 24
12:00 PM
Tue, May 24
1:00 PM
Tue, May 24
2:00 PM
Tue, May 24
3:00 PM
Tue, May 24
4:00 PM
Tue, May 24
5:00 PM
Tue, May 24
6:00 PM
Tue, May 24
7:00 PM
Tue, May 24
8:00 PM
Tue, May 24
9:00 PM
Tue, May 24
10:00 PM
Tue, May 24
11:00 PM
Wed, May 25
12:00 AM
Wed, May 25
1:00 AM
Wed, May 25
2:00 AM
Wed, May 25
3:00 AM
Wed, May 25
4:00 AM
Wed, May 25
5:00 AM
Wed, May 25
6:00 AM
Wed, May 25
7:00 AM
Wed, May 25
8:00 AM
Wed, May 25
9:00 AM
Wed, May 25
10:00 AM
Wed, May 25
11:00 AM
Wed, May 25
12:00 PM
Wed, May 25
1:00 PM
Wed, May 25
2:00 PM
Wed, May 25
3:00 PM
Wed, May 25
4:00 PM
Wed, May 25
5:00 PM
Wed, May 25
6:00 PM
Wed, May 25
7:00 PM
Wed, May 25
8:00 PM
Wed, May 25
9:00 PM
Wed, May 25
10:00 PM
Wed, May 25
11:00 PM
Thu, May 26
12:00 AM
Thu, May 26
1:00 AM
Thu, May 26
2:00 AM
Thu, May 26
3:00 AM
Thu, May 26
4:00 AM
Thu, May 26
5:00 AM
Thu, May 26
6:00 AM
Condition
Clear

Clear

Clear

Clouds

Clouds

Clouds

Clouds

Clouds

Clouds

Clouds

Clouds

Clouds

Clouds

Clouds

Clouds

Clouds

Clouds

Clouds

Clouds

Clouds

Clouds

Clouds

Clouds

Clouds

Clouds

Clouds

Clouds

Clouds

Clouds

Clouds

Clouds

Clouds

Clouds

Clouds

Clouds

Clouds

Clouds

Clouds

Clouds

Rain

Rain

Clouds

Clouds

Clouds

Clouds

Clouds

Clouds

Clouds
Temperature 75°F75°F76°F79°F83°F87°F89°F91°F93°F92°F87°F86°F84°F81°F79°F77°F76°F75°F74°F73°F73°F73°F73°F73°F73°F75°F77°F80°F83°F87°F89°F91°F91°F90°F89°F86°F83°F80°F79°F77°F77°F76°F76°F75°F75°F75°F75°F74°F
Feels Like 76°F76°F77°F79°F85°F88°F90°F92°F94°F93°F88°F86°F84°F82°F79°F78°F77°F76°F75°F74°F74°F74°F74°F74°F74°F76°F78°F83°F85°F87°F89°F90°F90°F90°F90°F88°F84°F82°F79°F78°F78°F77°F76°F76°F76°F76°F75°F75°F
Cloudiness 0%3%9%14%18%22%32%39%96%98%99%99%98%98%91%95%96%90%82%80%100%100%100%100%100%100%100%100%100%99%98%90%100%100%100%100%100%100%100%100%100%100%100%100%100%100%100%100%
Visibility 6 mi6 mi6 mi6 mi6 mi6 mi6 mi6 mi6 mi6 mi6 mi6 mi6 mi6 mi6 mi6 mi6 mi6 mi6 mi6 mi6 mi6 mi6 mi6 mi6 mi6 mi6 mi6 mi6 mi6 mi6 mi6 mi6 mi6 mi6 mi6 mi6 mi6 mi6 mi6 mi6 mi6 mi6 mi6 mi6 mi6 mi6 mi6 mi
Precipitation 0%0%0%0%0%0%0%0%0%0%0%0%0%0%0%0%0%0%0%0%0%0%0%0%0%0%0%0%0%0%0%0%0%0%0%12%12%14%17%25%37%41%33%29%0%0%0%0%
Humidity 81%82%79%70%59%47%41%37%34%39%45%44%46%51%55%65%71%74%77%79%80%80%82%84%84%79%72%64%54%45%39%36%35%37%42%49%54%57%65%75%77%77%77%79%79%79%79%80%
Dew Point 68°F69°F69°F68°F67°F64°F62°F61°F61°F63°F63°F62°F61°F61°F62°F65°F66°F67°F67°F67°F66°F66°F67°F67°F68°F68°F67°F67°F65°F63°F61°F60°F60°F61°F63°F65°F64°F64°F66°F69°F69°F68°F68°F68°F68°F68°F68°F68°F
Pressure 30.03"30.03"30.03"30.06"30.06"30.06"30.03"30.03"30"29.97"29.97"29.97"30"30"30.03"30.06"30.06"30.06"30.06"30.06"30.06"30.03"30.03"30.03"30.06"30.09"30.09"30.09"30.09"30.09"30.06"30.03"30.03"30"30"30"30.03"30.03"30.06"30.09"30.09"30.09"30.09"30.06"30.06"30.06"30.06"30.06"
Wind Speed 6.3 mph8.6 mph9.6 mph8.9 mph8.8 mph8.9 mph7.5 mph5.4 mph3.2 mph10.7 mph13.2 mph13.8 mph14.6 mph14.3 mph14 mph13.5 mph12.1 mph10.8 mph9.1 mph7.8 mph7.2 mph7.4 mph7.7 mph6.9 mph6 mph7.8 mph10.6 mph11.6 mph12.6 mph12 mph12.2 mph12.3 mph13.1 mph14.2 mph15.2 mph16.2 mph16.2 mph14.9 mph14.2 mph11.4 mph9.6 mph8.8 mph8.1 mph8.4 mph6.9 mph7.4 mph8.6 mph8.8 mph
Wind
Direction
138°
SE
138°
SE
142°
SE
144°
SE
138°
SE
137°
SE
144°
SE
155°
SSE
140°
SE
96°
E
104°
ESE
102°
ESE
100°
E
103°
ESE
105°
ESE
110°
ESE
120°
ESE
127°
SE
133°
SE
139°
SE
137°
SE
127°
SE
127°
SE
129°
SE
123°
ESE
120°
ESE
122°
ESE
127°
SE
121°
ESE
120°
ESE
118°
ESE
116°
ESE
110°
ESE
102°
ESE
93°
E
96°
E
98°
E
100°
E
101°
E
112°
ESE
120°
ESE
123°
ESE
119°
ESE
110°
ESE
116°
ESE
108°
ESE
109°
ESE
118°
ESE

Daily Forecast

Date High Low Precip. Humidity
Today
May 24

Rain
93 °F
74 °F
90%
41%
Wednesday
May 25

Rain
91 °F
73 °F
37%
39%
Thursday
May 26

Rain
93 °F
75 °F
55%
36%
Friday
May 27

Rain
93 °F
73 °F
87%
36%
Saturday
May 28

Rain
89 °F
72 °F
76%
49%
Sunday
May 29

Clear
90 °F
70 °F
0%
33%
Monday
May 30

Clear
95 °F
72 °F
0%
29%
Tuesday
May 31

Clear
94 °F
74 °F
0%
31%
Wednesday
Jun 1

Rain
95 °F
74 °F
95%
48%
Thursday
Jun 2

Clouds
92 °F
73 °F
14%
36%
Friday
Jun 3

Rain
92 °F
75 °F
96%
42%
Saturday
Jun 4

Rain
86 °F
74 °F
90%
53%
Sunday
Jun 5

Clouds
84 °F
73 °F
12%
43%
Monday
Jun 6

Rain
88 °F
72 °F
96%
46%
Tuesday
Jun 7

Rain
91 °F
72 °F
40%
48%
Wednesday
Jun 8

Clear
94 °F
73 °F
12%
37%

Temperature 8-14 Day Outlook



Precipitation 8-14 Day Outlook




Quick Links
Lake Buena Vista News
Lake Buena Vista Photos
Lake Buena Vista Videos




About Us
Contact Us
Site Map
Search Site
Advertise With Us
   
BuenaVista.LakesOnline.com
THE LAKE BUENA VISTA WEBSITE

Copyright 2022, Lakes Online
Privacy    |    Legal